Prague, Czech Republic

4:33 PM CET on 三月 25, 2017 (GMT +0100)
Prague-Ruzyne Airport

天気 に付いての歴史 LKPR - 三月, 2017

Change the Weather History Date:

火曜日, 三月 21, 2017

  Actual Average Record
Temperature  
平均温度 50 °F -  
最高温度 56 °F 53 °F 70 °F (2014)
最低温度 44 °F 34 °F 23 °F (1997)
Degree Days  
暖房度日 15    
Moisture  
露点温度 40 °F    
Average Humidity 67    
Maximum Humidity 81    
Minimum Humidity 46    
降水確率  
降水確率 0.00 インチ 0.05 インチ - ()
海面圧  
海面圧 29.81 インチ    
 
風速 10 Mph ()    
最大風速 17 Mph    
Max Gust Speed -    
視程 6.2 マイル    
イベント      
Averages and records for this station are not official NWS values.
T = Trace of Precipitation, MM = Missing Value Source: Averaged Metar Reports

Daily Weather History Graph

Daily Weather History Graph

Search for Another Location

Airport or City:

Trip Planner

Search our weather history database for the weather conditions in past years. The results will help you decide how hot, cold, wet, or windy it might be!

Date:

天文

Mar. 21, 2017 入り
実時間 6:03 AM CET 6:17 PM CET
常用薄明 5:31 AM CET 6:49 PM CET
航海薄明 4:52 AM CET 7:28 PM CET
天文薄明 4:13 AM CET 8:08 PM CET
2:04 AM CET (3/21) 11:07 AM CET (3/21)
可視光の長さ 13h 18m
可照時間
12h 14m
第 4 四半期, 42% of the Moon is Illuminated
3月 21
第 4 四半期
3月 28
新しい
4月 3
上弦
4月 11
満月
4月 19
第 4 四半期

Hourly Weather History & Observations

時間 (CET) 温度 体感気温(寒さ) 露点温度 湿度 気圧 視程 Wind Dir 風速 突風の速度 Precip イベント 現在の気象状況
12:00 AM 48.2 °F - 41.0 °F 76% 29.77 インチ - 南南西 9.2 Mph - N/A  
12:30 AM 46.4 °F 41.1 °F 41.0 °F 81% 29.77 インチ - 南西 11.5 Mph - N/A  
1:00 AM 46 °F - 40 °F 72% 29.79 インチ 22 マイル 南西 11.2 Mph - -   所により曇
1:00 AM 46.4 °F 41.1 °F 39.2 °F 76% 29.77 インチ - 南南西 11.5 Mph - N/A  
1:30 AM 44.6 °F 38.4 °F 39.2 °F 81% 29.77 インチ - 南南西 12.7 Mph - N/A  
2:00 AM 46 °F - 39 °F 69% 29.80 インチ 22 マイル 南西 8.9 Mph - -   だいたい曇
2:00 AM 46.4 °F 41.9 °F 39.2 °F 76% 29.77 インチ 6.2 マイル 南南西 9.2 Mph - N/A   だいたい曇
2:30 AM 46.4 °F 41.9 °F 39.2 °F 76% 29.77 インチ 6.2 マイル 南西 9.2 Mph - N/A   だいたい曇
3:00 AM 47 °F - 39 °F 65% 29.78 インチ 22 マイル 南西 11.2 Mph - -   所により曇
3:00 AM 48.2 °F - 39.2 °F 71% 29.74 インチ 6.2 マイル 南南西 12.7 Mph - N/A   やや曇
3:30 AM 48.2 °F - 39.2 °F 71% 29.74 インチ - 南西 11.5 Mph - N/A  
4:00 AM 47 °F - 38 °F 60% 29.78 インチ 22 マイル 西南西 11.2 Mph - -   だいたい曇
4:00 AM 48.2 °F - 37.4 °F 66% 29.77 インチ 6.2 マイル 南西 10.4 Mph - N/A   だいたい曇
4:30 AM 46.4 °F 40.7 °F 37.4 °F 71% 29.77 インチ 6.2 マイル 西南西 12.7 Mph - N/A   だいたい曇
5:00 AM 47 °F - 39 °F 64% 29.81 インチ 22 マイル 西南西 11.2 Mph - -   だいたい曇
5:00 AM 46.4 °F 41.1 °F 39.2 °F 76% 29.77 インチ 6.2 マイル 西南西 11.5 Mph - N/A   だいたい曇
5:30 AM 46.4 °F 41.9 °F 39.2 °F 76% 29.77 インチ 6.2 マイル 西南西 9.2 Mph - N/A   だいたい曇
6:00 AM 46 °F - 39 °F 68% 29.82 インチ 22 マイル 西南西 6.7 Mph - -   だいたい曇
6:00 AM 46.4 °F 42.4 °F 39.2 °F 76% 29.80 インチ 6.2 マイル 西南西 8.1 Mph - N/A   だいたい曇
6:30 AM 46.4 °F 41.9 °F 39.2 °F 76% 29.80 インチ 6.2 マイル 西南西 9.2 Mph - N/A   だいたい曇
7:00 AM 47 °F - 39 °F 65% 29.83 インチ 25 マイル 西南西 8.9 Mph - -   やや曇
7:00 AM 46.4 °F 41.9 °F 39.2 °F 76% 29.80 インチ 6.2 マイル 南西 9.2 Mph - N/A   所により曇
7:30 AM 46.4 °F 41.9 °F 39.2 °F 76% 29.80 インチ 6.2 マイル 南南西 9.2 Mph - N/A   だいたい曇
8:00 AM 48 °F - 39 °F 61% 29.83 インチ 25 マイル 南西 11.2 Mph - -   だいたい曇
8:00 AM 48.2 °F - 39.2 °F 71% 29.80 インチ 6.2 マイル 南南西 11.5 Mph - N/A   だいたい曇
8:30 AM 48.2 °F - 39.2 °F 71% 29.80 インチ 6.2 マイル 南西 13.8 Mph - N/A   だいたい曇
9:00 AM 50 °F - 39 °F 55% 29.83 インチ 25 マイル 南西 15.7 Mph - -   所により曇
9:00 AM 50.0 °F - 41.0 °F 71% 29.80 インチ 6.2 マイル 南西 15.0 Mph - N/A   やや曇
9:30 AM 50.0 °F - 39.2 °F 66% 29.80 インチ 6.2 マイル 西南西 15.0 Mph - N/A   所により曇
10:00 AM 52 °F - 40 °F 54% 29.84 インチ 28 マイル 西南西 13.4 Mph - -   だいたい曇
10:00 AM 51.8 °F - 39.2 °F 62% 29.83 インチ 6.2 マイル 西南西 15.0 Mph - N/A   だいたい曇
10:30 AM 51.8 °F - 39.2 °F 62% 29.83 インチ 6.2 マイル 西南西 17.3 Mph - N/A   だいたい曇
11:00 AM 52 °F - 40 °F 53% 29.84 インチ 31 マイル 西南西 15.7 Mph - -   だいたい曇
11:00 AM 51.8 °F - 39.2 °F 62% 29.83 インチ 6.2 マイル 西南西 17.3 Mph - N/A   だいたい曇
11:30 AM 51.8 °F - 39.2 °F 62% 29.83 インチ 6.2 マイル 西南西 15.0 Mph - N/A   やや曇
12:00 PM 53 °F - 41 °F 53% 29.83 インチ 31 マイル 南西 13.4 Mph - -   やや曇
12:00 PM 53.6 °F - 41.0 °F 62% 29.83 インチ 6.2 マイル 西南西 17.3 Mph - N/A   所により曇
12:30 PM 55.4 °F - 41.0 °F 58% 29.80 インチ 6.2 マイル 西南西 15.0 Mph - N/A   所により曇
1:00 PM 56 °F - 41 °F 46% 29.81 インチ 37 マイル 南西 13.4 Mph - -   だいたい曇
1:00 PM 55.4 °F - 42.8 °F 63% 29.80 インチ 6.2 マイル 西 12.7 Mph - N/A   やや曇
1:30 PM 53.6 °F - 41.0 °F 62% 29.80 インチ 6.2 マイル 西南西 12.7 Mph - N/A   だいたい曇
2:00 PM 54 °F - 41 °F 51% 29.81 インチ 44 マイル 西南西 11.2 Mph - -  
2:00 PM 53.6 °F - 41.0 °F 62% 29.80 インチ 6.2 マイル 西南西 13.8 Mph - N/A   やや曇
2:30 PM 53.6 °F - 41.0 °F 62% 29.80 インチ 6.2 マイル 南西 13.8 Mph - N/A   だいたい曇
3:00 PM 53 °F - 40 °F 50% 29.81 インチ 37 マイル 南西 13.4 Mph - -   所により曇
3:00 PM 53.6 °F - 41.0 °F 62% 29.80 インチ 6.2 マイル 西南西 13.8 Mph - N/A   やや曇
3:30 PM 53.6 °F - 39.2 °F 58% 29.80 インチ 6.2 マイル 西南西 11.5 Mph - N/A   だいたい曇
4:00 PM 53 °F - 41 °F 53% 29.81 インチ 34 マイル 西 8.9 Mph - -   やや曇
4:30 PM 51.8 °F - 41.0 °F 67% 29.80 インチ 6.2 マイル 西 6.9 Mph - N/A   所により曇
5:00 PM 51.8 °F - 41.0 °F 67% 29.80 インチ 6.2 マイル 西南西 8.1 Mph - N/A   やや曇
5:30 PM 51.8 °F - 41.0 °F 67% 29.80 インチ 6.2 マイル 西南西 8.1 Mph - N/A   だいたい曇
6:00 PM 51 °F - 41 °F 60% 29.83 インチ 31 マイル 西南西 4.5 Mph - -   だいたい曇
6:00 PM 51.8 °F - 41.0 °F 67% 29.80 インチ 6.2 マイル 西南西 6.9 Mph - N/A   だいたい曇
6:30 PM 50.0 °F - 41.0 °F 71% 29.80 インチ 6.2 マイル 西南西 4.6 Mph - N/A   だいたい曇
7:00 PM 50 °F - 42 °F 64% 29.84 インチ 25 マイル 南西 4.5 Mph - -   だいたい曇
7:00 PM 50.0 °F - 41.0 °F 71% 29.83 インチ 6.2 マイル 南西 5.8 Mph - N/A   だいたい曇
7:30 PM 50.0 °F - 41.0 °F 71% 29.83 インチ 6.2 マイル 南西 5.8 Mph - N/A   だいたい曇
8:00 PM 49 °F - 42 °F 67% 29.86 インチ 25 マイル 西南西 4.5 Mph - -   だいたい曇
8:00 PM 50.0 °F - 41.0 °F 71% 29.83 インチ 6.2 マイル 西南西 5.8 Mph - N/A   だいたい曇
8:30 PM 50.0 °F - 41.0 °F 71% 29.83 インチ 6.2 マイル 南西 5.8 Mph - N/A   だいたい曇
9:00 PM 49 °F - 41 °F 67% 29.86 インチ 25 マイル 西 6.7 Mph - -   だいたい曇
9:00 PM 50.0 °F - 41.0 °F 71% 29.83 インチ 6.2 マイル 西 5.8 Mph - N/A   だいたい曇
9:30 PM 46.4 °F 41.1 °F 41.0 °F 81% 29.86 インチ 6.2 マイル 西北西 11.5 Mph - N/A   だいたい曇
10:00 PM 46.4 °F 41.9 °F 39.2 °F 76% 29.86 インチ 6.2 マイル 北西 9.2 Mph - N/A   だいたい曇
10:30 PM 46.4 °F 41.9 °F 39.2 °F 76% 29.86 インチ 6.2 マイル 北西 9.2 Mph - N/A   だいたい曇
11:00 PM 45 °F - 38 °F 68% 29.91 インチ 25 マイル 北北西 11.2 Mph - -   だいたい曇
11:00 PM 44.6 °F 39.7 °F 37.4 °F 76% 29.86 インチ 6.2 マイル 北西 9.2 Mph - N/A   だいたい曇
11:30 PM 44.6 °F 38.8 °F 37.4 °F 76% 29.89 インチ 6.2 マイル 北西 11.5 Mph - N/A   だいたい曇